SAA375 FAOR-FACT

Flight info

Callsign SAA375
Flight time N/A
Altitude 40000
Route RAGUL3A RAGUL UQ10 DUMDO UZ26 ERDAS ERDAS1C
Aircraft A343/H-SDE2E3FGHIJ4J5M1RWXY/LB1D1

Departure

Time 2026-05-04 17:01
Airport O.R. Tambo International Airport (FAOR)

Arrival

Time N/A
Airport Cape Town International Airport (FACT)
Time Latitude Longitude Altitude Speed Heading
2026-05-04 16:26 -26.13349 28.23302 5551 ft 0 kts 276°
2026-05-04 16:48 -26.13353 28.23334 5552 ft 4 kts 276°
2026-05-04 16:48 -26.13355 28.23363 5551 ft 4 kts 288°
2026-05-04 16:49 -26.13391 28.23381 5552 ft 2 kts
2026-05-04 16:49 -26.13418 28.23378 5553 ft 0 kts
2026-05-04 16:54 -26.13411 28.23379 5554 ft 4 kts
2026-05-04 16:55 -26.13116 28.23456 5553 ft 12 kts 68°
2026-05-04 16:55 -26.13137 28.23661 5552 ft 14 kts 115°
2026-05-04 16:56 -26.13299 28.23650 5555 ft 17 kts 195°
2026-05-04 16:56 -26.13735 28.23513 5563 ft 24 kts 195°
2026-05-04 16:57 -26.13895 28.23464 5564 ft 24 kts 196°
2026-05-04 16:57 -26.14225 28.23361 5568 ft 26 kts 196°
2026-05-04 16:58 -26.14476 28.23305 5570 ft 1 kts 141°
2026-05-04 16:58 -26.14485 28.23329 5571 ft 9 kts 106°
2026-05-04 16:59 -26.14402 28.23514 5570 ft 6 kts 354°
2026-05-04 17:00 -26.14373 28.23520 5570 ft 0 kts 14°
2026-05-04 17:00 -26.13597 28.23759 5563 ft 120 kts 15°
2026-05-04 17:01 -26.11501 28.24464 6226 ft 167 kts 17°
2026-05-04 17:01 -26.09072 28.25195 7290 ft 200 kts
2026-05-04 17:02 -26.06340 28.24460 8644 ft 214 kts 328°
2026-05-04 17:02 -26.04851 28.21388 9652 ft 264 kts 265°
2026-05-04 17:03 -26.05427 28.19415 10560 ft 276 kts 247°
2026-05-04 17:03 -26.06474 28.17516 11085 ft 302 kts 238°
2026-05-04 17:03 -26.09012 28.13477 12368 ft 329 kts 239°
2026-05-04 17:04 -26.11707 28.09218 13942 ft 344 kts 238°
2026-05-04 17:04 -26.14537 28.04836 15580 ft 352 kts 239°
2026-05-04 17:05 -26.17436 28.00374 17255 ft 359 kts 239°
2026-05-04 17:05 -26.20392 27.95816 18855 ft 367 kts 240°
2026-05-04 17:06 -26.23413 27.91144 20240 ft 375 kts 240°
2026-05-04 17:06 -26.24233 27.89879 20611 ft 378 kts 239°